Location: Ebermergen
(48.7542°N, 10.7146°E)
Time: 19:00:32
(UTC+00:00)

Daily predictions for brighter satellites

Satellite Brightness Start Highest point End
(mag) Time Altitude Azimuth Time Altitude Azimuth Time Altitude Azimuth
Cosmos-2242 4.2 15:56:31 10° SSW 16:00:42 45° WNW 16:04:56 10° N
Cosmos 1937 Rocket 4.3 15:55:36 10° NNW 16:00:48 61° WSW 16:06:00 10° S
Cosmos 2360 Rocket 2.9 15:58:55 10° SW 16:04:25 53° NW 16:09:56 10° NNE
Cosmos 921 Rocket 4.3 16:01:50 10° SW 16:06:07 42° WNW 16:10:26 10° N
Cosmos 1125 Rocket 4.0 16:03:11 10° N 16:08:04 38° ENE 16:12:54 10° SE
Cosmos 1633 3.9 16:05:07 10° NNW 16:08:32 44° W 16:11:57 10° SSW
Cosmos 2208 Rocket 4.2 16:03:38 10° S 16:08:47 58° ESE 16:14:02 10° NNE
Cosmos 2219 Rocket 2.2 16:07:37 10° SSW 16:13:16 79° ESE 16:18:56 10° NNE
Cosmos 2221 2.6 16:11:27 10° S 16:15:45 62° E 16:20:02 10° NNE
Cosmos 1500 Rocket 3.6 16:11:41 10° N 16:16:02 59° ENE 16:20:22 10° SSE
CZ-4B R/B 3.1 16:11:16 10° SSE 16:16:32 63° ENE 16:21:47 10° N
Abrixas rocket 2.6 16:14:11 10° W 16:16:54 50° SSW 16:19:35 10° ESE
Cosmos 1939 Rocket 4.0 16:15:36 10° ESE 16:18:29 20° ENE 16:21:24 10° NNE
Cosmos 1980 Rocket 4.5 16:16:37 10° NW 16:18:39 12° NNW 16:20:42 10° N
SL-16 R/B 4.0 16:14:19 10° W 16:18:54 25° NW 16:23:31 10° N
ERS-2 3.6 16:16:45 10° NE 16:19:22 18° E 16:21:59 10° SE
FengYun 1-2 T 4.5 16:14:30 10° SE 16:19:46 46° ENE 16:25:01 10° N
SL-24 R/B - RUBIN 2 4.4 16:13:37 10° NW 16:20:02 63° NE 16:25:46 10° SE
NOAA 12 4.1 16:15:14 10° SSE 16:20:28 62° ENE 16:25:45 10° N
Cosmos 2237 Rocket 2.9 16:16:26 10° SSE 16:21:22 33° ESE 16:26:20 10° NE
ISS -2.1 16:21:01 10° SSW 16:23:43 23° SE 16:26:06 12° E
NOAA 11 4.4 16:19:26 10° SE 16:24:36 47° ENE 16:29:47 10° N
Cosmos 1869 3.7 16:20:36 10° SSW 16:24:36 70° W 16:28:43 10° N
USA 267 3.4 16:20:22 10° E 16:26:45 62° NNE 16:33:11 10° NW
CZ-4B R/B 2.5 16:26:56 13° NE 16:28:56 22° E 16:31:23 10° SSE
YAOGAN 1 4.2 16:26:44 10° E 16:29:12 15° ENE 16:31:41 10° NNE
Cosmos 2322 4.2 16:23:46 10° SW 16:29:22 63° WNW 16:35:03 10° NNE
Cosmos 540 Rocket 3.7 16:24:41 10° SSW 16:29:48 72° WNW 16:34:57 10° NNE
Cosmos 2369 Rocket 3.8 16:29:13 10° N 16:32:40 16° NE 16:34:50 13° ENE
NOSS 2-1 (E) 4.4 16:29:16 10° NW 16:34:21 85° SW 16:41:34 10° SE
Okean-O 3.9 16:31:10 10° ESE 16:34:22 20° ENE 16:37:34 10° NNE
AQUARIUS 4.1 16:30:18 10° SSE 16:34:46 74° ENE 16:39:17 10° N
Meteor 2-2 Rocket 4.3 16:29:58 10° S 16:35:57 83° E 16:41:51 10° NNE
CRYOSAT 2 4.4 16:31:29 10° NNE 16:36:18 57° E 16:41:07 10° S
COSMO-SKYMED 1 3.7 16:33:46 11° NE 16:37:04 23° E 16:40:31 10° SE
Cosmos 1743 Rocket 3.7 16:33:29 10° N 16:37:59 83° W 16:42:27 10° S
Cosmos 841 Rocket 3.9 16:32:55 10° SW 16:38:07 64° WNW 16:43:19 10° NNE
CORIOLIS 4.1 16:33:42 10° SSE 16:39:06 79° ENE 16:44:34 10° NNW
Cosmos 1980 4.0 16:33:44 10° S 16:39:08 48° ESE 16:44:33 10° NE
Envisat 3.7 16:34:59 10° S 16:39:59 58° W 16:45:02 10° NNW
H-2A R/B 3.6 16:38:38 10° S 16:42:53 50° W 16:47:01 10° NNW
H-2A R/B 3.3 16:42:58 12° ESE 16:46:25 21° ENE 16:50:13 10° NNE
Okean O Rocket 1.7 16:42:53 10° SSE 16:47:14 83° WSW 16:51:38 10° NNW
Nadezhda 1 Rocket 4.0 16:41:30 10° S 16:47:49 79° E 16:54:14 10° N
Sich 1 3.2 16:45:34 10° N 16:49:54 52° ENE 16:54:10 10° SSE
Cosmos 1842 Rocket 4.4 16:47:30 10° SSW 16:51:44 52° WNW 16:55:59 10° N
Cosmos 2292 4.2 16:51:02 10° S 16:54:05 80° E 16:57:42 10° N
Cosmos 405 Rocket 3.4 16:50:25 10° NNW 16:54:14 59° W 16:58:07 10° S
Cosmos 1933 4.3 16:51:21 10° SE 16:54:41 26° E 16:55:34 23° ENE
Cosmos 2297 4.1 16:51:38 10° NNW 16:57:00 41° NE 17:02:18 10° ESE
Cosmos 2154 Rocket 4.2 16:51:04 10° NNW 16:57:25 80° W 17:03:45 10° S
Cosmos 1805 Rocket 3.5 16:53:48 10° N 16:58:19 83° E 17:02:45 10° S
YAOGAN 6 4.5 16:56:56 10° SSW 17:00:18 34° W 17:03:40 10° NNW
Cosmos 962 Rocket 4.4 16:55:34 10° N 17:01:54 72° E 17:08:07 10° SSE
Cosmos 1666 Rocket 3.7 17:00:04 10° N 17:04:19 47° ENE 17:08:35 10° SSE
Cosmos 2341 Rocket 3.9 16:58:34 10° N 17:04:49 68° ENE 17:11:06 10° SSE
SMAP 4.0 17:01:33 10° S 17:06:04 51° W 17:10:38 10° NNW
Cosmos 1943 Rocket 2.9 17:01:14 10° NNW 17:06:07 30° NE 17:07:56 25° E
Helios 1A Rocket 3.5 17:03:20 11° SE 17:06:50 34° ENE 17:10:30 10° N
USA 281 3.2 17:00:52 10° SE 17:07:17 60° ENE 17:13:44 10° NNW
Cosmos 2322 Rocket 4.5 17:04:32 10° WNW 17:08:02 16° NW 17:11:32 10° N
SL-16 R/B 3.0 17:03:43 10° SSE 17:08:30 29° ESE 17:09:55 26° E
Cosmos 1151 Rocket 3.7 17:05:49 10° SSE 17:09:36 31° E 17:09:50 31° E
Cosmos 1328 Rocket 4.4 17:08:37 10° SSE 17:11:48 28° ESE 17:11:48 28° ESE
MOS 1 Rocket 4.3 17:14:13 27° ENE 17:15:38 31° E 17:20:24 10° SSE
ARGOS 4.0 17:15:45 27° ENE 17:15:45 27° ENE 17:20:12 10° N
NOSS 0 Rocket 4.0 17:12:50 10° SSW 17:19:06 80° WNW 17:24:41 14° NNE
Feng Yun 1-1 Rocket 4.3 17:13:30 10° SSE 17:19:21 88° WSW 17:25:04 10° NNW
Cosmos 1606 2.6 17:16:06 10° S 17:19:59 82° E 17:23:04 16° NNE
Cosmos 389 Rocket 2.2 17:16:39 10° S 17:20:04 74° E 17:21:15 38° NNE
Cosmos 2285 Rocket 4.1 17:14:04 10° NNW 17:20:22 55° ENE 17:26:36 10° SE
CREW DRAGON DEMO-1 DEB 2.6 17:17:26 10° WNW 17:20:26 71° NNE 17:20:29 71° NNE
Cosmos 836 Rocket 4.4 17:15:44 10° SSW 17:21:00 76° ESE 17:25:00 18° NNE
CZ-2C R/B 3.1 17:16:03 10° SE 17:21:01 50° ENE 17:25:46 10° N
Cosmos 2333 Rocket 3.6 17:17:18 10° WSW 17:22:29 35° NW 17:27:40 10° NNE
H-2A R/B 3.6 17:20:28 10° N 17:24:12 33° WNW 17:27:58 10° SW
SKYMED 2 3.5 17:22:23 19° NNE 17:25:25 67° ESE 17:29:44 10° S
Cosmos 1867 3.9 17:20:57 10° S 17:26:04 44° ESE 17:27:32 36° E
Meteor 1-20 Rocket 4.2 17:20:14 10° N 17:26:05 69° ENE 17:31:54 10° SSE
COSMOS 2428 3.9 17:22:19 10° WSW 17:27:40 40° NW 17:33:04 10° NNE
SL-8 Rocket 3.9 17:26:31 10° N 17:32:47 82° E 17:39:03 10° S
Cosmos 864 Rocket 4.4 17:26:56 10° N 17:33:15 67° ENE 17:39:29 10° SSE
Cosmos 2278 Rocket 3.8 17:29:56 10° NW 17:35:05 37° WSW 17:40:13 10° S
Lacrosse 5 rocket 3.5 17:32:46 10° S 17:33:15 12° SSE 17:33:15 12° SSE
USA 215 3.2 17:32:16 29° ENE 17:35:53 86° SE 17:42:27 10° SW
Cosmos 1633 Rocket 2.9 17:31:36 10° N 17:36:02 81° E 17:40:24 10° SSE
EO 1 Delta rocket 4.2 17:32:46 10° NNE 17:37:52 66° E 17:44:09 10° S
Cosmos 2181 Rocket 3.9 17:31:33 10° S 17:37:58 74° E 17:44:21 10° NNE
CZ-4 R/B 1.1 17:37:52 55° SE 17:38:34 70° ENE 17:42:32 10° N
SAR-Lupe-4 3.5 17:40:59 66° N 17:41:26 84° WNW 17:45:00 10° SSW
Meteor 1-25 Rocket 4.1 17:36:44 10° N 17:42:22 87° ENE 17:48:01 10° SSE
Cosmos 1959 Rocket 4.4 17:35:59 10° N 17:42:23 80° E 17:48:44 10° SSE
Cosmos 1821 Rocket 4.4 17:40:19 10° N 17:45:18 38° NE 17:45:18 38° NE
CZ-2D R/B 3.5 17:42:26 10° S 17:46:13 67° WSW 17:50:03 10° NNW
Cosmos 1241 Rocket 4.5 17:42:40 10° NW 17:49:17 69° NE 17:51:53 39° ESE
BREEZE-M DEB (TANK) 4.4 17:48:06 10° WSW 17:48:48 17° SW 17:48:48 17° SW
ERS-2 3.5 17:50:53 19° N 17:53:04 38° WNW 17:56:28 10° SW
Cosmos 1939 Rocket 4.1 17:49:32 10° SSW 17:53:11 39° W 17:56:52 10° NNW
CSL-04 Debris 4.1 17:51:53 37° SE 17:54:02 64° ENE 17:59:30 10° N
Cosmos 44 3.4 17:49:02 10° NW 17:54:19 79° NE 17:55:25 57° ESE
DEBRIS 3.7 17:41:03 10° W 17:55:16 87° N 17:56:23 57° E
Cosmos 2219 Rocket 4.1 17:53:22 10° W 17:57:53 24° NW 18:02:22 10° N
SL-08 R/B 4.3 17:52:13 10° N 17:58:23 67° ENE 18:04:28 10° SSE
ISS -2.4 17:56:51 10° WSW 17:59:04 38° WSW 17:59:04 38° WSW
CZ-4B R/B 3.6 18:00:04 18° NW 18:01:07 21° WNW 18:03:31 10° WSW
YAOGAN 1 2.6 18:03:52 54° S 18:04:45 75° WSW 18:09:07 10° NNW
Cosmos 2237 Rocket 3.0 17:59:51 10° SW 18:05:15 47° NW 18:08:38 22° N
USA 267 3.6 18:05:49 24° SSE 18:09:50 59° SW 18:16:17 10° WNW
Okean-O 3.2 18:06:07 10° S 18:10:28 55° W 18:14:51 10° NNW
COSMO-SKYMED 1 3.7 18:10:59 22° N 18:13:25 42° WNW 18:17:30 10° SW
Cosmos 2218 Rocket 4.5 18:10:23 10° NNW 18:16:25 59° W 18:22:24 10° S
Cosmos 2369 Rocket 2.7 18:12:19 10° NNW 18:16:39 47° N 18:16:39 47° N
CSL-04 Rocket 3.5 18:18:44 78° S 18:19:06 87° WSW 18:24:29 10° NNW
H-2A R/B 2.2 18:23:36 43° S 18:25:21 71° WSW 18:30:35 10° NNW
Cosmos 1943 Rocket 2.8 18:44:45 10° NW 18:49:30 52° W 18:49:30 52° W
SL-16 R/B 2.9 18:46:47 10° SW 18:51:50 52° WNW 18:51:50 52° WNW
ARGOS 4.2 18:57:16 40° NW 18:57:16 40° NW 19:01:01 10° NNW
USA 215 4.0 19:19:37 47° NW 19:19:37 47° NW 19:24:55 10° W
